sat.trackr.live / text

‹ back to catalog

STARLINK-3106

NORAD 49164 · 2021-082AL

PAYLOAD ACTIVE UNKNOWN

§ Identity

Operator
Country
US
Launch date
2021-09-14
Launch site
AFWTR
Launch vehicle
Mass (kg)
RCS (m²)

Purposes: comms

External: N2YO · Heavens-Above · Gunter

§ Orbital elements

Epoch: 2026-05-25T03:29:35.354112Z

Period
96.11 min
Inclination
70.0002°
Eccentricity
0.0002724
Mean motion
14.98334826 rev/d
Perigee alt
570.1 km
Apogee alt
573.9 km
Semi-major
6,950.2 km
B*
9.9659e-5
RAAN
81.6822°
Arg perigee
266.8276°
Mean anomaly
93.2571°
Rev number
25,908

§ Raw data

STARLINK-31061 49164U 21082AL  26145.14554808  .00001096  00000+0  99659-4 0  99972 49164  70.0002  81.6822 0002724 266.8276  93.2571 14.98334826259083

JSON: /api/v1/satellites/49164 · /tle

For live sub-satellite position, see the globe view (requires WebGL).

§ Visibility from observer

Set your observer location to see the next 7 days of passes ≥ 10°. The values pass through the URL so the page stays shareable.

No JS? Fill the form by hand. The geolocation button needs JavaScript.